DW2893 Weather Reports


Display with metric or nautical units.
time (UTC)temp
F
wind
direction
speed
MPH
gust
MPH
rain 1hr
in
rain 24hr
in
rain mn
in
humidity
%
barometer
mb
20180818201309 98 298 5.0 12.0 0.00 0.00 0.00 45 1011.8
20180818200808 98 264 3.0 7.0 0.00 0.00 0.00 44 1011.9
20180818195308 98 269 2.0 7.0 0.00 0.00 0.00 45 1012.1
20180818194809 98 263 5.0 8.0 0.00 0.00 0.00 48 1012.3
20180818193809 98 257 0.0 8.0 0.00 0.00 0.00 47 1012.4
20180818192808 97 315 3.0 5.0 0.00 0.00 0.00 46 1012.8
20180818192309 97 258 6.0 12.0 0.00 0.00 0.00 48 1012.8
20180818190808 97 257 7.0 15.0 0.00 0.00 0.00 49 1012.7
20180818185808 96 290 6.0 12.0 0.00 0.00 0.00 49 1012.8
20180818185308 96 287 6.0 12.0 0.00 0.00 0.00 50 1012.9
20180818184808 96 312 3.0 9.0 0.00 0.00 0.00 50 1013.3
20180818184308 96 260 6.0 12.0 0.00 0.00 0.00 50 1013.3
20180818183808 95 286 5.0 9.0 0.00 0.00 0.00 52 1013.3
20180818183308 95 223 3.0 9.0 0.00 0.00 0.00 51 1013.5
20180818182809 95 175 5.0 8.0 0.00 0.00 0.00 51 1013.5
20180818182308 94 246 3.0 10.0 0.00 0.00 0.00 52 1013.5
20180818181808 95 263 6.0 12.0 0.00 0.00 0.00 50 1013.7
20180818181308 95 292 4.0 10.0 0.00 0.00 0.00 50 1013.7
20180818180808 95 237 7.0 13.0 0.00 0.00 0.00 51 1013.7
20180818180308 95 287 5.0 12.0 0.00 0.00 0.00 52 1013.6
20180818174808 94 232 6.0 12.0 0.00 0.00 0.00 50 1013.8
20180818174308 94 240 5.0 12.0 0.00 0.00 0.00 51 1014.0
20180818173808 94 237 5.0 12.0 0.00 0.00 0.00 52 1014.0
20180818173308 94 247 5.0 16.0 0.00 0.00 0.00 51 1014.0
20180818172808 93 221 9.0 15.0 0.00 0.00 0.00 50 1014.1
20180818172308 93 189 10.0 18.0 0.00 0.00 0.00 51 1014.1
20180818171807 93 206 8.0 15.0 0.00 0.00 0.00 52 1014.1
20180818171308 93 205 8.0 14.0 0.00 0.00 0.00 52 1014.1
20180818170808 93 248 8.0 20.0 0.00 0.00 0.00 52 1014.1
20180818170308 93 227 10.0 17.0 0.00 0.00 0.00 52 1014.1
20180818165807 92 194 8.0 14.0 0.00 0.00 0.00 54 1014.1
20180818165308 92 243 7.0 14.0 0.00 0.00 0.00 53 1014.1
20180818164308 92 225 7.0 20.0 0.00 0.00 0.00 54 1014.1
20180818163808 91 197 10.0 16.0 0.00 0.00 0.00 54 1014.1
20180818162808 91 205 9.0 18.0 0.00 0.00 0.00 55 1014.3
20180818162308 91 204 10.0 18.0 0.00 0.00 0.00 55 1014.6
20180818161807 90 206 10.0 17.0 0.00 0.00 0.00 55 1014.6
20180818161308 90 201 9.0 18.0 0.00 0.00 0.00 56 1014.6
20180818160808 90 216 9.0 16.0 0.00 0.00 0.00 56 1014.6
20180818160307 90 215 10.0 20.0 0.00 0.00 0.00 56 1014.5
20180818155808 89 199 10.0 20.0 0.00 0.00 0.00 56 1014.5
20180818155308 89 216 7.0 22.0 0.00 0.00 0.00 57 1014.6
20180818154308 89 209 9.0 22.0 0.00 0.00 0.00 56 1014.6
20180818153808 89 216 9.0 17.0 0.00 0.00 0.00 57 1014.6
20180818153308 88 215 11.0 20.0 0.00 0.00 0.00 56 1014.6
20180818152307 88 216 6.0 15.0 0.00 0.00 0.00 58 1014.7
20180818151808 87 207 7.0 15.0 0.00 0.00 0.00 60 1014.7
20180818151308 87 207 10.0 17.0 0.00 0.00 0.00 60 1014.7
20180818150807 87 223 7.0 17.0 0.00 0.00 0.00 61 1014.7
20180818150308 87 196 12.0 20.0 0.00 0.00 0.00 61 1014.7
20180818145808 87 201 7.0 16.0 0.00 0.00 0.00 62 1014.7
20180818145307 86 198 9.0 17.0 0.00 0.00 0.00 63 1014.8
20180818143807 86 188 9.0 16.0 0.00 0.00 0.00 65 1014.8
20180818142307 86 199 9.0 17.0 0.00 0.00 0.00 65 1015.0
20180818141808 85 201 7.0 16.0 0.00 0.00 0.00 66 1015.2
20180818141308 85 189 6.0 16.0 0.00 0.00 0.00 66 1015.2
20180818140807 85 188 12.0 17.0 0.00 0.00 0.00 66 1015.1
20180818140308 85 194 7.0 14.0 0.00 0.00 0.00 67 1015.1
20180818135807 84 186 9.0 16.0 0.00 0.00 0.00 67 1015.1
20180818135308 84 182 9.0 17.0 0.00 0.00 0.00 67 1015.1
20180818134807 84 183 9.0 20.0 0.00 0.00 0.00 69 1015.1
20180818133807 83 190 10.0 17.0 0.00 0.00 0.00 69 1015.0
20180818132308 82 179 8.0 16.0 0.00 0.00 0.00 72 1014.9
20180818131307 82 181 9.0 16.0 0.00 0.00 0.00 72 1015.1
20180818130807 81 181 7.0 15.0 0.00 0.00 0.00 72 1015.1
20180818125807 81 172 8.0 13.0 0.00 0.00 0.00 72 1015.3
20180818125307 82 179 6.0 12.0 0.00 0.00 0.00 72 1015.2
20180818124307 82 172 8.0 14.0 0.00 0.00 0.00 72 1015.2
20180818123807 82 168 7.0 12.0 0.00 0.00 0.00 72 1015.2
20180818123307 82 191 8.0 14.0 0.00 0.00 0.00 72 1015.1
20180818122807 82 174 7.0 17.0 0.00 0.00 0.00 72 1015.1
20180818122307 82 189 7.0 13.0 0.00 0.00 0.00 71 1015.0
20180818121807 82 183 6.0 10.0 0.00 0.00 0.00 71 1014.9
20180818121307 82 180 9.0 12.0 0.00 0.00 0.00 71 1014.9
20180818120807 82 178 7.0 13.0 0.00 0.00 0.00 71 1014.9
20180818120307 82 191 7.0 14.0 0.00 0.00 0.00 71 1014.7
20180818115807 82 177 9.0 16.0 0.00 0.00 0.00 71 1014.7
20180818115306 82 191 10.0 15.0 0.00 0.00 0.00 71 1014.5
20180818114806 82 182 7.0 20.0 0.00 0.00 0.00 71 1014.3
20180818114307 82 178 9.0 16.0 0.00 0.00 0.00 71 1014.3
20180818113807 82 181 10.0 15.0 0.00 0.00 0.00 71 1014.3
20180818113307 82 187 10.0 18.0 0.00 0.00 0.00 71 1014.4
20180818112307 82 189 9.0 18.0 0.00 0.00 0.00 70 1014.2
20180818111807 82 189 8.0 15.0 0.00 0.00 0.00 70 1014.3
20180818111307 82 187 8.0 13.0 0.00 0.00 0.00 70 1014.3
20180818110307 82 189 7.0 12.0 0.00 0.00 0.00 70 1014.4
20180818104806 83 176 10.0 15.0 0.00 0.00 0.00 69 1014.2
20180818103807 83 189 8.0 16.0 0.00 0.00 0.00 68 1014.2
20180818103307 83 176 8.0 12.0 0.00 0.00 0.00 68 1014.3
20180818102807 83 174 7.0 13.0 0.00 0.00 0.00 68 1014.3
20180818102307 83 169 7.0 12.0 0.00 0.00 0.00 68 1014.3
20180818100807 83 197 7.0 12.0 0.00 0.00 0.00 67 1014.4
20180818095307 83 186 7.0 10.0 0.00 0.00 0.00 66 1014.3
20180818094807 83 192 6.0 12.0 0.00 0.00 0.00 66 1014.3
20180818094307 84 187 7.0 10.0 0.00 0.00 0.00 66 1014.4
20180818093806 84 171 6.0 10.0 0.00 0.00 0.00 65 1014.4
20180818093307 84 183 5.0 9.0 0.00 0.00 0.00 65 1014.2
20180818090806 84 183 5.0 9.0 0.00 0.00 0.00 64 1014.0
20180818090307 84 172 6.0 13.0 0.00 0.00 0.00 63 1014.0
20180818085807 84 192 6.0 12.0 0.00 0.00 0.00 63 1014.0
20180818084806 84 180 7.0 12.0 0.00 0.00 0.00 62 1014.0
20180818083806 84 177 6.0 12.0 0.00 0.00 0.00 61 1013.9
20180818082307 84 179 6.0 10.0 0.00 0.00 0.00 60 1013.9
20180818081807 85 183 5.0 8.0 0.00 0.00 0.00 60 1013.9
20180818081306 85 194 5.0 12.0 0.00 0.00 0.00 60 1013.9
20180818080807 85 183 5.0 12.0 0.00 0.00 0.00 59 1014.1
20180818080306 85 189 5.0 9.0 0.00 0.00 0.00 59 1014.1
20180818075807 85 184 5.0 12.0 0.00 0.00 0.00 59 1014.1
20180818075306 85 193 7.0 10.0 0.00 0.00 0.00 58 1014.1
20180818074806 85 189 7.0 12.0 0.00 0.00 0.00 58 1014.1
20180818074306 85 178 7.0 14.0 0.00 0.00 0.00 58 1014.1
20180818073806 85 191 7.0 12.0 0.00 0.00 0.00 58 1014.1
20180818072306 85 180 8.0 14.0 0.00 0.00 0.00 57 1014.1
20180818071806 86 176 9.0 15.0 0.00 0.00 0.00 57 1014.2
20180818071307 86 174 7.0 12.0 0.00 0.00 0.00 57 1014.2
20180818070807 86 183 7.0 12.0 0.00 0.00 0.00 56 1014.2
20180818070306 86 174 7.0 12.0 0.00 0.00 0.00 56 1014.0
20180818065306 86 156 8.0 12.0 0.00 0.00 0.00 56 1014.0
20180818063306 86 169 6.0 12.0 0.00 0.00 0.00 55 1014.0
20180818062806 86 162 7.0 13.0 0.00 0.00 0.00 55 1014.0
20180818061806 87 176 6.0 9.0 0.00 0.00 0.00 54 1014.2
20180818061306 87 164 6.0 9.0 0.00 0.00 0.00 54 1014.2
20180818060806 87 156 6.0 8.0 0.00 0.00 0.00 54 1014.2
20180818060306 87 153 5.0 7.0 0.00 0.00 0.00 54 1014.2
20180818055805 87 150 3.0 7.0 0.00 0.00 0.00 54 1014.2
20180818055306 87 146 5.0 9.0 0.00 0.00 0.00 53 1014.2
20180818053806 87 157 6.0 12.0 0.00 0.00 0.00 53 1014.2
20180818053306 87 164 6.0 12.0 0.00 0.00 0.00 53 1014.2
20180818052806 87 152 6.0 9.0 0.00 0.00 0.00 53 1014.2
20180818051306 88 157 5.0 7.0 0.00 0.00 0.00 53 1014.1
20180818050926 88 155 5.0 8.0 0.00 0.00 0.00 53 1014.1
20180818050306 88 152 5.0 8.0 0.00 0.00 0.00 53 1013.5
20180818045806 88 146 6.0 8.0 0.00 0.00 0.00 53 1013.5
20180818045305 88 162 5.0 12.0 0.00 0.00 0.00 53 1013.5
20180818044805 88 147 6.0 12.0 0.00 0.00 0.00 53 1013.5
20180818043806 88 168 7.0 10.0 0.00 0.00 0.00 53 1013.6
20180818042806 88 164 6.0 12.0 0.00 0.00 0.00 54 1013.4
20180818042306 88 154 6.0 12.0 0.00 0.00 0.00 53 1013.4
20180818041806 88 150 7.0 12.0 0.00 0.00 0.00 54 1013.4
20180818041305 88 138 6.0 12.0 0.00 0.00 0.00 54 1013.4
20180818040806 88 148 7.0 10.0 0.00 0.00 0.00 54 1013.4
20180818040306 88 148 6.0 10.0 0.00 0.00 0.00 54 1013.6
20180818035305 88 144 6.0 9.0 0.00 0.00 0.00 54 1013.6
20180818034805 88 151 6.0 8.0 0.00 0.00 0.00 55 1014.0
20180818034306 88 123 5.0 8.0 0.00 0.00 0.00 55 1014.0
20180818033306 88 133 5.0 7.0 0.00 0.00 0.00 55 1014.0
20180818032306 88 146 4.0 7.0 0.00 0.00 0.00 54 1013.8
20180818031806 89 142 5.0 6.0 0.00 0.00 0.00 54 1013.8
20180818031306 89 125 5.0 7.0 0.00 0.00 0.00 54 1014.1
20180818030806 89 131 3.0 6.0 0.00 0.00 0.00 53 1014.1
20180818030305 89 131 4.0 7.0 0.00 0.00 0.00 53 1014.1
20180818025805 89 137 4.0 7.0 0.00 0.00 0.00 52 1014.0
20180818025305 90 130 4.0 7.0 0.00 0.00 0.00 52 1014.0
20180818024805 90 142 5.0 8.0 0.00 0.00 0.00 52 1014.0
20180818023805 90 145 5.0 8.0 0.00 0.00 0.00 52 1014.1
20180818022806 90 140 5.0 6.0 0.00 0.00 0.00 51 1014.1
20180818021305 91 162 7.0 10.0 0.00 0.00 0.00 50 1013.8
20180818020805 91 158 5.0 12.0 0.00 0.00 0.00 50 1013.8
20180818014805 92 152 6.0 10.0 0.00 0.00 0.00 49 1013.8
20180818014305 92 150 5.0 10.0 0.00 0.00 0.00 49 1013.7
20180818013305 92 156 5.0 9.0 0.00 0.00 0.00 48 1013.6
20180818011805 93 145 6.0 12.0 0.00 0.00 0.00 47 1013.0
20180818011305 93 154 6.0 10.0 0.00 0.00 0.00 46 1013.0
20180818010805 93 160 6.0 9.0 0.00 0.00 0.00 46 1013.0
20180818004805 94 151 6.0 9.0 0.00 0.00 0.00 45 1012.9
20180818004305 94 142 5.0 12.0 0.00 0.00 0.00 45 1012.9
20180818003805 94 157 7.0 12.0 0.00 0.00 0.00 45 1012.9
20180818002805 94 164 6.0 12.0 0.00 0.00 0.00 45 1012.8
20180818002305 95 156 7.0 12.0 0.00 0.00 0.00 44 1012.8
20180818001805 95 153 9.0 15.0 0.00 0.00 0.00 44 1012.8
20180818001305 95 168 7.0 12.0 0.00 0.00 0.00 44 1012.8
20180818000305 96 149 8.0 13.0 0.00 0.00 0.00 44 1012.6
20180817235805 96 145 7.0 13.0 0.00 0.00 0.00 44 1012.6
20180817235304 96 156 7.0 15.0 0.00 0.00 0.00 45 1012.5
20180817234304 96 145 7.0 14.0 0.00 0.00 0.00 44 1012.5
20180817233305 96 162 10.0 13.0 0.00 0.00 0.00 45 1012.5
20180817232804 96 150 9.0 14.0 0.00 0.00 0.00 44 1012.5
20180817231304 97 153 9.0 15.0 0.00 0.00 0.00 44 1012.6
20180817225805 97 181 5.0 12.0 0.00 0.00 0.00 44 1012.6
20180817225304 97 177 7.0 13.0 0.00 0.00 0.00 45 1012.6
20180817224804 97 160 5.0 13.0 0.00 0.00 0.00 44 1012.6
20180817223805 97 193 5.0 10.0 0.00 0.00 0.00 43 1012.5
20180817223304 97 188 7.0 14.0 0.00 0.00 0.00 43 1012.7
20180817222305 97 208 6.0 13.0 0.00 0.00 0.00 43 1012.8
20180817221805 97 187 6.0 10.0 0.00 0.00 0.00 43 1012.8
20180817221305 97 208 5.0 10.0 0.00 0.00 0.00 44 1012.8
20180817220804 98 205 6.0 12.0 0.00 0.00 0.00 43 1012.9
20180817215804 98 173 7.0 13.0 0.00 0.00 0.00 43 1013.1
20180817214805 98 185 5.0 12.0 0.00 0.00 0.00 44 1013.1
20180817213804 98 168 9.0 13.0 0.00 0.00 0.00 43 1013.1
20180817213304 98 161 6.0 12.0 0.00 0.00 0.00 44 1013.2
20180817212304 98 199 8.0 13.0 0.00 0.00 0.00 43 1013.5
20180817211804 98 209 9.0 15.0 0.00 0.00 0.00 43 1013.5
20180817211304 98 161 10.0 17.0 0.00 0.00 0.00 44 1013.8
20180817210804 98 201 7.0 15.0 0.00 0.00 0.00 45 1013.8
20180817210304 98 164 9.0 15.0 0.00 0.00 0.00 44 1014.0
20180817205805 98 194 7.0 14.0 0.00 0.00 0.00 45 1014.0
20180817204804 97 169 9.0 15.0 0.00 0.00 0.00 46 1014.0
20180817203804 97 201 9.0 18.0 0.00 0.00 0.00 46 1014.3
20180817203304 97 164 9.0 14.0 0.00 0.00 0.00 46 1014.3